TimeMST,TemperatureF,Dew PointF,Humidity,Sea Level PressureIn,VisibilityMPH,Wind Direction,Wind SpeedMPH,Gust SpeedMPH,PrecipitationIn,Events,Conditions,WindDirDegrees,DateUTC
12:53 AM,34.0,12.0,40,30.05,10.0,WSW,12.7,-,N/A,,Clear,250,2013-01-18 07:53:00
1:53 AM,30.9,10.9,43,30.05,10.0,West,6.9,-,N/A,,Clear,260,2013-01-18 08:53:00
2:53 AM,34.0,10.0,37,30.03,10.0,West,11.5,-,N/A,,Clear,270,2013-01-18 09:53:00
3:53 AM,35.1,8.1,33,30.01,10.0,WNW,9.2,-,N/A,,Clear,290,2013-01-18 10:53:00
4:53 AM,37.9,7.0,28,30.00,10.0,WNW,6.9,-,N/A,,Clear,290,2013-01-18 11:53:00
5:53 AM,35.1,7.0,31,30.01,10.0,West,6.9,-,N/A,,Clear,260,2013-01-18 12:53:00
6:53 AM,32.0,7.0,35,30.04,10.0,WSW,9.2,-,N/A,,Clear,250,2013-01-18 13:53:00
7:53 AM,30.0,8.1,40,30.05,10.0,West,5.8,-,N/A,,Clear,260,2013-01-18 14:53:00
8:53 AM,33.1,9.0,37,30.06,10.0,WSW,9.2,-,N/A,,Clear,250,2013-01-18 15:53:00
9:53 AM,37.0,10.0,33,30.06,10.0,West,10.4,-,N/A,,Clear,270,2013-01-18 16:53:00
10:53 AM,41.0,10.0,28,30.01,10.0,West,9.2,21.9,N/A,,Clear,260,2013-01-18 17:53:00
11:53 AM,44.1,10.0,25,29.95,10.0,West,13.8,19.6,N/A,,Clear,260,2013-01-18 18:53:00
12:53 PM,45.0,8.1,22,29.90,10.0,WNW,20.7,41.4,N/A,,Clear,290,2013-01-18 19:53:00
1:53 PM,44.1,10.0,25,29.92,10.0,West,17.3,23.0,N/A,,Clear,270,2013-01-18 20:53:00
2:53 PM,43.0,9.0,25,29.90,10.0,West,17.3,29.9,N/A,,Clear,280,2013-01-18 21:53:00
3:53 PM,42.1,12.0,29,29.90,10.0,West,11.5,19.6,N/A,,Clear,270,2013-01-18 22:53:00
4:53 PM,37.9,12.9,36,29.92,10.0,WSW,4.6,-,N/A,,Clear,240,2013-01-18 23:53:00
5:53 PM,37.9,12.9,36,29.92,10.0,Calm,Calm,-,N/A,,Clear,0,2013-01-19 00:53:00
6:53 PM,33.1,12.0,42,29.95,10.0,SSW,4.6,-,N/A,,Scattered Clouds,200,2013-01-19 01:53:00
7:53 PM,35.1,15.1,44,29.95,10.0,SSW,3.5,-,N/A,,Clear,200,2013-01-19 02:53:00
8:53 PM,34.0,17.1,50,29.94,10.0,Calm,Calm,-,N/A,,Clear,0,2013-01-19 03:53:00
9:53 PM,39.9,10.0,29,29.90,10.0,WNW,15.0,24.2,N/A,,Mostly Cloudy,300,2013-01-19 04:53:00
10:53 PM,37.9,10.9,33,29.90,10.0,West,6.9,-,N/A,,Clear,280,2013-01-19 05:53:00
11:53 PM,36.0,10.9,36,29.90,10.0,NW,3.5,-,N/A,,Clear,310,2013-01-19 06:53:00